Burlington, VT

8:24 PM EDT on March 25, 2017 (GMT -0400)
Burlington International

Weather History for KBTV - March, 2014

Change the Weather History Date:

Monday, March 31, 2014

  Actual Average Record
Temperature  
Mean Temperature 34 °F 38 °F  
Max Temperature 37 °F 47 °F 84 °F (1998)
Min Temperature 31 °F 29 °F 2 °F (1954)
Degree Days  
Heating Degree Days 31 27  
Month to date heating degree days 1322 1053  
Since 1 July heating degree days 6787 6464  
Cooling Degree Days 0 0  
Month to date cooling degree days 0 0  
Year to date cooling degree days 0 0  
Moisture  
Dew Point 25 °F    
Average Humidity 72    
Maximum Humidity 85    
Minimum Humidity 59    
Precipitation  
Precipitation 0.00 in 0.08 in 0.62 in (1932)
Month to date precipitation 1.88 2.22  
Year to date precipitation 6.16 6.04  
Snow  
Snow 0.00 in 0.30 in 4.50 in (1997)
Month to date snowfall 25.4 15.8  
Since 1 July snowfall 83.7 76.6  
Snow Depth 4.00 in    
Sea Level Pressure  
Sea Level Pressure 30.08 in    
Wind  
Wind Speed 14 mph (North)    
Max Wind Speed 23 mph    
Max Gust Speed 33 mph    
Visibility 10 miles    
Events      
T = Trace of Precipitation, MM = Missing Value Source: NWS Daily Summary

Daily Weather History Graph

Daily Weather History Graph

Search for Another Location

Airport or City:

Trip Planner

Search our weather history database for the weather conditions in past years. The results will help you decide how hot, cold, wet, or windy it might be!

Date:

Astronomy

Mar. 31, 2014 Rise Set
Actual Time 6:35 AM EDT 7:18 PM EDT
Civil Twilight 6:06 AM EDT 7:48 PM EDT
Nautical Twilight 5:31 AM EDT 8:23 PM EDT
Astronomical Twilight 4:55 AM EDT 8:59 PM EDT
Moon 6:55 AM EDT (3/31) 8:38 PM EDT (3/31)
Length of Visible Light 13h 41m
Length of Day
12h 43m
New Moon, 1% of the Moon is Illuminated
Mar 31
New Moon
Apr 7
First Quarter
Apr 15
Full
Apr 22
Last Quarter
Apr 29
New

Hourly Weather History & Observations

Time (EDT) Temp. Windchill Dew Point Humidity Pressure Visibility Wind Dir Wind Speed Gust Speed Precip Events Conditions
12:54 AM 30.9 °F 20.2 °F 26.1 °F 82% 29.97 in 10.0 mi North 15.0 mph - N/A   Overcast
1:05 AM 30.9 °F 20.7 °F 25.0 °F 79% 29.96 in 10.0 mi North 13.8 mph - N/A   Overcast
1:54 AM 30.9 °F 19.4 °F 25.0 °F 79% 29.97 in 10.0 mi North 17.3 mph 24.2 mph N/A   Overcast
2:54 AM 30.9 °F 19.8 °F 25.0 °F 79% 29.96 in 10.0 mi North 16.1 mph - N/A   Overcast
3:41 AM 30.9 °F 19.1 °F 25.0 °F 79% 29.96 in 10.0 mi North 18.4 mph 27.6 mph N/A   Overcast
3:54 AM 30.9 °F 19.8 °F 25.0 °F 79% 29.97 in 10.0 mi North 16.1 mph - N/A   Overcast
4:54 AM 30.9 °F 19.8 °F 25.0 °F 79% 29.99 in 10.0 mi North 16.1 mph 24.2 mph N/A   Overcast
5:39 AM 30.9 °F 20.7 °F 25.0 °F 79% 30.00 in 10.0 mi North 13.8 mph 21.9 mph N/A   Overcast
5:54 AM 30.9 °F 20.2 °F 25.0 °F 79% 30.01 in 10.0 mi North 15.0 mph - N/A   Overcast
6:07 AM 30.9 °F 19.8 °F 25.0 °F 79% 30.01 in 10.0 mi North 16.1 mph - N/A   Overcast
6:43 AM 30.9 °F 18.4 °F 24.1 °F 76% 30.03 in 10.0 mi North 20.7 mph 27.6 mph N/A   Overcast
6:54 AM 30.9 °F 18.7 °F 24.1 °F 76% 30.04 in 10.0 mi NNW 19.6 mph - N/A   Overcast
7:54 AM 30.9 °F 18.4 °F 24.1 °F 76% 30.08 in 10.0 mi North 20.7 mph 27.6 mph N/A   Overcast
8:54 AM 30.9 °F 20.7 °F 24.1 °F 76% 30.09 in 10.0 mi North 13.8 mph - N/A   Overcast
9:54 AM 30.9 °F 20.2 °F 24.1 °F 76% 30.09 in 10.0 mi North 15.0 mph - N/A   Overcast
10:54 AM 32.0 °F 22.1 °F 24.1 °F 73% 30.09 in 10.0 mi NNW 13.8 mph - N/A   Overcast
11:54 AM 32.0 °F 19.8 °F 24.1 °F 73% 30.10 in 10.0 mi NNW 20.7 mph - N/A   Overcast
12:54 PM 32.0 °F 21.6 °F 24.1 °F 73% 30.11 in 10.0 mi North 15.0 mph 25.3 mph N/A   Overcast
1:54 PM 33.1 °F 21.5 °F 24.1 °F 70% 30.12 in 10.0 mi North 19.6 mph 33.4 mph N/A   Overcast
2:54 PM 34.0 °F 24.2 °F 24.1 °F 67% 30.13 in 10.0 mi NNW 15.0 mph 21.9 mph N/A   Overcast
3:54 PM 35.1 °F 24.5 °F 24.1 °F 64% 30.13 in 10.0 mi NNW 18.4 mph 25.3 mph N/A   Overcast
4:31 PM 36.0 °F 26.3 °F 25.0 °F 64% 30.12 in 10.0 mi North 16.1 mph 24.2 mph N/A   Overcast
4:54 PM 36.0 °F 26.7 °F 25.0 °F 64% 30.14 in 10.0 mi NNW 15.0 mph 27.6 mph N/A   Overcast
5:54 PM 37.0 °F 28.5 °F 25.0 °F 62% 30.15 in 10.0 mi North 13.8 mph - N/A   Overcast
6:54 PM 37.0 °F 29.3 °F 26.1 °F 65% 30.17 in 10.0 mi NNW 11.5 mph - N/A   Overcast
7:54 PM 37.0 °F 29.8 °F 26.1 °F 65% 30.18 in 10.0 mi North 10.4 mph - N/A   Scattered Clouds
8:54 PM 36.0 °F 30.3 °F 26.1 °F 67% 30.20 in 10.0 mi North 6.9 mph - N/A   Overcast
9:54 PM 34.0 °F 26.0 °F 26.1 °F 73% 30.20 in 10.0 mi North 10.4 mph - N/A   Clear
10:54 PM 33.1 °F 26.1 °F 25.0 °F 72% 30.20 in 10.0 mi North 8.1 mph - N/A   Clear
11:54 PM 32.0 °F 24.2 °F 24.1 °F 73% 30.21 in 10.0 mi NNW 9.2 mph - N/A   Clear